Simultaneous Nadir Overpasses (SNOs) Predictions

Prediction of SNOs between LANDSAT-8 and METOP-A Satellite Orbit:

Table of predicted SNOs for the next 14.0 days since TLE Epoch: 8/8/2014
Index Date (LANDSAT-8) Time (LANDSAT-8) Lat,Lon (LANDSAT-8) SZA (LANDSAT-8 ) Date (METOP-A) Time (METOP-A) Lat,Lon (METOP-A) SZA (METOP-A ) Distance(km) Time Diff (sec)
1 08/09/2014 12:46:40 -81.10,-152.01 112.72 08/09/2014 12:46:02 -81.11,-151.82 112.71 3.19 38
2 08/09/2014 13:36:06 81.11, 15.70 67.31 08/09/2014 13:36:42 81.11, 15.65 67.32 0.94 36
3 08/12/2014 08:20:55 -81.10, -85.59 111.88 08/12/2014 08:20:26 -81.10, -85.71 111.91 2.27 29
4 08/12/2014 09:10:20 81.13, 82.46 68.19 08/12/2014 09:11:04 81.13, 82.49 68.21 0.63 44
5 08/15/2014 03:55:11 -81.09, -19.30 111.03 08/15/2014 03:54:50 -81.10, -19.28 111.04 0.62 21
6
